Regional Weather Roundup
Issued by NWS

Home | Current Version | Previous Version | Graphics & Text | Print | Product List | Glossary On
Versions: 1 2 3 4 5 6 7 8 9 10 11 12 13 14 15 16 17 18 19 20 21 22 23 24 25 26 27 28 29 30 31 32 33 34 35 36 37 38 39 40 41 42 43 44 45 46 47 48 49 50
000
ASUS43 KLOT 161406
RWRIL

ILLINOIS REGIONAL WEATHER ROUNDUP
NATIONAL WEATHER SERVICE CHICAGO/ROMEOVILLE IL
900 AM CDT WED APR 16 2014

NOTE: "FAIR" INDICATES FEW OR NO CLOUDS BELOW 12,000 FEET WITH NO
SIGNIFICANT WEATHER AND/OR OBSTRUCTIONS TO VISIBILITY.

* THESE STATIONS ARE NOT UNDER NWS QUALITY CONTROL. THEY ALSO MAY NOT
  REPORT WEATHER SUCH AS PRECIPITATION OR FOG.

ILZ001-002-007-009-015-016-024-161500-
NORTHWEST ILLINOIS

CITY           SKY/WX    TMP DP  RH WIND       PRES   REMARKS
MOLINE         MOSUNNY   39  25  57 SE16G22   30.16S WCI  30
STERLING*      PTSUNNY   37  25  60 S9G18     30.21F WCI  31
SAVANNA*       PTSUNNY   39  26  59 SE15      30.18F WCI  31
$$

ILZ003-004-008-010-011-017-018-161500-
NORTH CENTRAL ILLINOIS

CITY           SKY/WX    TMP DP  RH WIND       PRES   REMARKS
ROCKFORD       PTSUNNY   36  25  64 S12       30.25F WCI  28
FREEPORT*      PTSUNNY   39  30  71 SE16      30.21F WCI  30
ROCHELLE*      MOSUNNY   35  28  76 SE15      30.24S WCI  25
DE KALB*       MOSUNNY   33  26  76 S15       30.26F WCI  23
$$

ILZ005-006-012>014-019>023-161500-
NORTHEAST ILLINOIS

CITY           SKY/WX    TMP DP  RH WIND       PRES   REMARKS
CHICAGO-OHARE  PTSUNNY   38  21  50 S15       30.30R WCI  29
CHICAGO-MIDWAY MOSUNNY   38  21  50 S13G21    30.31S WCI  30
AURORA         MOSUNNY   37  26  64 SE14G22   30.28S WCI  28
LANSING*       SUNNY     37  22  55 S15       30.33S WCI  27
WAUKEGAN       SUNNY     37  22  54 S10       30.29S WCI  30
DUPAGE AIRPORT MOSUNNY   37  25  61 SE12      30.28R WCI  29
KANKAKEE*      SUNNY     38  26  61 SE14      30.32F WCI  30
WHEELING       SUNNY     38  23  55 S12       30.31R WCI  30
MORRIS*        SUNNY     38  25  58 S16G23    30.29R WCI  29
NORTHERLY ISL    N/A     37  21  52 S12         N/A  WCI  29
$$

LMZ740>746-161500-
SOUTHERN LAKE MICHIGAN

STATION/POSITION SKY/WX   TEMP    WIND        PRES    VSBY  WAVE
                          AIR SEA DIR/SP/G                  HT/PER
                          (F)     (DEG/KT/KT) (MB)    (MI)  (FT/S)
WAUKEGAN HARBOR            38     190/ 14/ 17 1027.1F
HARRISON CRIB              35     170/ 19/ 23   N/A
BURNHAM HARBOR             37     160/ 10/ 15   N/A
CALUMET HARBOR             36     150/  8/ 13 1027.4S
MICHIGAN CITY              35     140/ 12/ 18   N/A
$$

ILZ025>027-034>036-040-047-049-050-058-095>099-161500-
WEST-CENTRAL ILLINOIS

CITY           SKY/WX    TMP DP  RH WIND       PRES   REMARKS
QUINCY         MOSUNNY   42  24  49 S17G29    30.14S
GALESBURG*     MOSUNNY   40  28  61 SE20G26   30.17R
MACOMB*        MOSUNNY   40  28  60 S22G30    30.19S
JACKSONVILLE*  SUNNY     43  26  50 S20       30.23S
PITTSFIELD*    MOSUNNY   43  27  52 S17       30.19F
$$

ILZ028>032-037-038-041>044-048-051>054-059>061-161500-
CENTRAL ILLINOIS

CITY           SKY/WX    TMP DP  RH WIND       PRES   REMARKS
PONTIAC        SUNNY     39  28  65 S22       30.29R WCI  29
BLOOMINGTON    SUNNY     37  26  65 S23G29    30.27S WCI  26
DECATUR        SUNNY     40  26  57 S16G28    30.30R
PEORIA         MOSUNNY   42  24  49 S20G28    30.22F
LACON*         MOSUNNY   40  26  56 S18       30.23F
LINCOLN*       SUNNY     42  28  59 S16G22    30.28S
SPRINGFIELD    SUNNY     42  25  50 S20G30    30.26S
TAYLORVILLE    SUNNY     39  27  60 S20       30.27S WCI  30
$$

ILZ033-039-045-046-055>057-062-063-161500-
EAST-CENTRAL ILLINOIS

CITY           SKY/WX    TMP DP  RH WIND       PRES   REMARKS
CHAMPAIGN      SUNNY     38  26  62 S16       30.31R WCI  29
RANTOUL*       SUNNY     38  26  64 S15       30.33S WCI  29
MATTOON        SUNNY     38  25  59 SE17G24   30.30S WCI  28
PARIS*         SUNNY     38  26  61 SE16      30.35S WCI  28
$$

ILZ079-100>102-161500-
SOUTHWEST ILLINOIS

CITY           SKY/WX    TMP DP  RH WIND       PRES   REMARKS
ALTON          MOSUNNY   43  23  45 S16       30.26S
BELLEVILLE     SUNNY     42  26  52 SE21G28   30.27S
CAHOKIA*       SUNNY     41  27  57 S16G24    30.27R
SPARTA*        SUNNY     39  28  65 SE12      30.29F WCI  32
$$

ILZ064>066-069>071-074>076-080>082-084>086-088>090-092>094-161500-
SOUTH-CENTRAL ILLINOIS

CITY           SKY/WX    TMP DP  RH WIND       PRES   REMARKS
CARBONDALE     SUNNY     42  24  49 SE14      30.31S
CAIRO*         MOSUNNY   45  26  46 SE12      30.33S
MARION         MOSUNNY   41  25  52 SE14      30.33R
MT. VERNON     MOSUNNY   41  21  45 SE13G18   30.33R
CENTRALIA*       N/A     41  26  55 SE15      30.30S
SALEM*         SUNNY     42  27  57 SE8G16    30.31S
METROPOLIS*    SUNNY     43  25  50 SE10G16   30.32S
$$

ILZ067-068-072-073-078-083-087-091-161500-
SOUTHEAST ILLINOIS

CITY           SKY/WX    TMP DP  RH WIND       PRES   REMARKS
FLORA*         SUNNY     40  27  61 SE15      30.34R
FAIRFIELD*     MOSUNNY   41  28  60 SE16      30.34R
HARRISBURG*    MOSUNNY   40  27  61 SE13      30.35R
ROBINSON*      SUNNY     41  28  60 S12       30.36F
CARMI*         MOSUNNY   40  30  66 SE10      30.35R
$$

ABBREVIATIONS USED IN REMARKS
   TC - TEMPERATURE IN CELSIUS
  WCI - WIND CHILL INDEX
   HX - HEAT INDEX
  VSB - VISIBILITY
$$




USA.gov is the U.S. government's official web portal to all federal, state and local government web resources and services.